SL-16 R/B, 25400

Orbit data source: Space-Track

SL-16 R/B, 25400 is space debris in SSO originally from a launch on Fri, 10 Jul 1998 UTC launched from the Tyuratam Missile And Space Complex (TTMTR). Debris objects in space refer to the collection of defunct objects orbiting the Earth. Examples of debris include non-operational satellites, rocket bodies, and fragments generated from explosions, collisions, or faulty payload assembly.

Loading next visibility...
Identifier
25400, 1998-043G
Orbit
SSO
Country
Flag of CISCIS
Related business
Manufacturer
Yuzhnoe
Mission
Spacecraft
Bus & Motor
11S772, Unknown motor
Mass
9,000 kg wet, 9,000 kg dry
Launch date (UTC)
1998-07-10 (27 years ago)
Launch vehicle
Unknown
Launch site
Tyuratam Missile And Space Complex (TTMTR)
Object type
Payload
Rocket body
Debris
Shape & HBR
Cyl, 5.2 m
Radar Cross Section
37.829 m², Large (>1 m²)

Expand to show TLE details & history
Last TLE update: 5 hours ago

TLE from 5 hours ago
0 SL-16 R/B
1 25400U 98043G   25289.61383543  .00000128  00000-0  72384-4 0  9993
2 25400  98.8017 237.1423 0010924  73.9719 286.2663 14.26003710418459
Epoch: 2025-10-16T14:43Z
TLE epoch observation values (Epoch: 2025-10-16T14:43:55.381Z)
Latitude
0.00001°
Longitude
-9.20949°
Altitude
805.849 km
Speed
7.452 km/s
True Right ascension
15h 48m 34s
True Declination
0° 00' 00"
Sunlit
Object was in daylight at epoch
Visualization orbit readout
Latitude
Unknown
Longitude
Unknown
Altitude
Unknown
Speed
Unknown
Apparent Right ascension
Unknown
Apparent Declination
Unknown
Sunlit
N/A
Visualization observer readout
Local Sidereal Time
14:32:00
Azimuth
Unknown
Elevation
Unknown
Doppler factor
Unknown
Orbital elements
Apogee altitude
810.119 km
Perigee altitude
794.431 km
Semi-major axis
7,180.412 km
Eccentricity
0.00109
Inclination
98.8017°
RAAN
237.1423°
Arg. of periapsis
73.9719°
True anomaly
286.14609°
Mean anomaly
286.2663°
Eccentric anomaly
286.2062°
Mean motion
3.56713 °/min
Orbital period
100.92 mins
BSTAR
0.000072384
Loading maneuver chart data...
Computing Atmospheric mass density...
Loading historical data...
Loading historical data...
Loading historical data...
Loading historical data...
Loading historical data...
Loading historical data...
Loading historical data...

Documentation

Showing up to 5 results
|